Regional Weather Roundup
Issued by NWS

Home | Current Version | Previous Version | Text Only | Print | Product List | Glossary On
Versions: 1 2 3 4 5 6 7 8 9 10 11 12 13 14 15 16 17 18 19 20 21 22 23 24 25 26 27 28 29 30 31 32 33 34 35 36 37 38 39 40 41 42 43 44 45 46 47 48 49 50
000
ASUS43 KFSD 201910
RWRSD

WEATHER ROUNDUP FOR SOUTH DAKOTA
NATIONAL WEATHER SERVICE SIOUX FALLS SD
100 PM CST SAT DEC 20 2014

NOTE: "FAIR" INDICATES FEW OR NO CLOUDS BELOW 12,000 FEET WITH NO
SIGNIFICANT WEATHER AND/OR OBSTRUCTIONS TO VISIBILITY.


SDZ001>005-009-010-012>017-202000-
NORTHWEST AND NORTH CENTRAL SOUTH DAKOTA

CITY           SKY/WX    TMP DP  RH WIND       PRES   REMARKS
BUFFALO          N/A     49  29  46 NW18      29.80F
FAITH            N/A     40  32  73 SW7       29.87F
MOBRIDGE       CLOUDY    29  26  89 SE10      29.87F WCI  20
$$

SDZ012>016-024>037-041>051-057-063-072>074-202000-
SOUTHWEST AND SOUTH CENTRAL SOUTH DAKOTA

CITY           SKY/WX    TMP DP  RH WIND       PRES   REMARKS
RAPID CTY ARPT CLOUDY    49  28  44 N13       29.90F
PIERRE         CLOUDY    26  22  84 SE6       29.92F WCI  19
CUSTER         CLOUDY    43  19  38 N8        29.90F
ELLSWORTH AFB  PTSUNNY   46  28  48 N12       29.90F
PHILIP         CLOUDY    40  28  62 W6        29.91F
PINE RIDGE     CLOUDY    40  27  59 SW6       29.92F
SPEARFISH      FAIR      45  25  45 NW8       29.92F
WINNER         FAIR      34  24  67 S6        29.92F WCI  29
$$

SDZ004>011-016>023-039-040-202000-
NORTHEAST SOUTH DAKOTA

CITY           SKY/WX    TMP DP  RH WIND       PRES   REMARKS
ABERDEEN       CLOUDY    27  25  92 S9        29.99S FOG     WCI  18
WATERTOWN      CLOUDY    30  28  92 S13       29.98F FOG     WCI  20
SISSETON         N/A     31  28  89 SW13      29.99F WCI  21
$$

SDZ017-020-022-023-036>040-048>070-202000-
SOUTHEAST SOUTH DAKOTA

CITY           SKY/WX    TMP DP  RH WIND       PRES   REMARKS
SIOUX FALLS    CLOUDY    32  30  92 S9        30.03F WCI  24
HURON          CLOUDY    27  26  96 S10       29.99F FOG     WCI  17
CHAMBERLAIN    CLOUDY    25  24  97 SE6       29.95F WCI  18
MITCHELL       CLOUDY    30  30 100 S9        30.02F FOG     WCI  22
YANKTON        CLOUDY    32  28  86 S8        30.04F WCI  25
$$

ABBREVIATIONS USED IN REMARKS
   TC - TEMPERATURE IN CELSIUS
  WCI - WIND CHILL INDEX
   HX - HEAT INDEX
  VSB - VISIBILITY



USA.gov is the U.S. government's official web portal to all federal, state and local government web resources and services.